STARLINK-35245, 65599

Orbit data source: Space-Track

STARLINK-35245, 65599 is a payload satellite owned by SpaceX/Seattle (US) in SSO that was launched on Sat, 13 Sep 2025 UTC via an FALCON 9 launch vehicle from the Air Force Eastern Test Range (AFETR). Payload-class satellites include a variety of spacecraft equipped with specific instruments for various scientific and technological missions. These include communications satellites like Starlink; space stations such as the ISS; scientific satellites like the Hubble; Earth observation satellites from companies like Planet Labs, Umbra, and HawkEye 360; GPS; miniature CubeSats for education and research; and military/defense satellites.

Loading next visibility...
Identifier
65599, 2025-207H
Orbit
SSO
Country
Flag of USUS
Related business
Manufacturer
SpaceX/Seattle
Mission
Operational Commercial Communications
Bus & Motor
STARLINK V2MO, Unknown motor
Mass
575 kg wet, ~530 kg dry
Launch date (UTC)
2025-09-13 (9 months ago)
Launch vehicle
FALCON 9
Launch site
Air Force Eastern Test Range (AFETR)
Object type
Payload
Rocket body
Debris
Shape & HBR
Box + 2 Pan, 17.7 m
Radar Cross Section
36.964 m², Large (>1 m²)

Expand to show TLE details & history
Last TLE update: 17 hours ago

TLE from 17 hours ago
0 STARLINK-35245
1 65599U 25207H   26166.43308571  .00003004  00000-0  21206-3 0  9993
2 65599  97.3555 234.1574 0001935 116.7610 243.3816 15.05657206 42972
Epoch: 2026-06-15T10:23Z
TLE epoch observation values (Epoch: 2026-06-15T10:23:38.605Z)
Latitude
0.00002°
Longitude
174.527°
Altitude
553.162 km
Speed
7.585 km/s
True Right ascension
15h 36m 37s
True Declination
0° 00' 00"
Sunlit
Object was in full shadow at epoch
Visualization orbit readout
Latitude
Unknown
Longitude
Unknown
Altitude
Unknown
Speed
Unknown
Apparent Right ascension
Unknown
Apparent Declination
Unknown
Sunlit
N/A
Visualization observer readout
Local Sidereal Time
13:36:25
Azimuth
Unknown
Elevation
Unknown
Doppler factor
Unknown
Orbital elements
Apogee altitude
547.812 km
Perigee altitude
545.132 km
Semi-major axis
6,924.609 km
Eccentricity
0.00019
Inclination
97.3555°
RAAN
234.1574°
Arg. of periapsis
116.761°
True anomaly
243.36178°
Mean anomaly
243.3816°
Eccentric anomaly
243.37169°
Mean motion
3.76661 °/min
Orbital period
95.58 mins
BSTAR
0.00021206
Loading maneuver chart data...
Computing Atmospheric mass density...
Loading historical data...
Loading historical data...
Loading historical data...
Loading historical data...
Loading historical data...
Loading historical data...
Loading historical data...

Documentation

Showing up to 5 results
|